Content
SEND FEEDBACK

Daily
Averages
Monthly
Summary
United Kingdom

ROSS, ENGLAND


Home > Europe > United Kingdom > England
Elevation: 184 feet     Latitude: 51 54N     Longitude: 002 36W

WEATHER
 
SELECT A DAY
Number of Records: 110,695;   Date Range: 7/1/96 - 7/9/14
 
SHARE

PRINT THIS DATA

[ ← Previous Day ]
WEATHER ALMANAC - OCTOBER 18, 2013
[ Next Day → ]
[ °C ]   °F
Weather ElementAverageHighLow
Temperature60.7 °F64.4 °F (3:50 pm)57.2 °F (8:50 am)
Dewpoint52.6 °F55.4 °F (2:50 pm)50 °F (4:20 pm)
Humidity74.9 %88 % (8:50 am)63 % (4:20 pm)
Barometer29.87 in29.95 in (8:50 am)29.77 in (5:50 pm)
Wind Speed8.2 mph13.8 mph (10:20 am)
Weather ElementAverage
Visibility6.2 mi
Wind DirectionESE (122.9 °)

Weather ElementTotal
Precipitation---
Heating Degree Days4.2 (Base 65)
Growing Degree Days10.8 (Base 50)
Averaged from 21 records on October 18, 2013
WEATHER CONDITIONS BREAKOUT
WIND DIRECTION BREAKOUT
WEATHER BY HOUR - OCTOBER 18, 2013
[ °C ]   °F
Local TimeTemperatureDewpointHumidityBarometerVisibilityWind DirectionWind SpeedGust SpeedPrecipitationEventsConditions
8:50 AM57.2 °F53.6 °F88 %29.95 in6.2 miSE (130°)3.5 mphMostly Cloudy
9:20 AM57.2 °F53.6 °F88 %29.95 in6.2 miESE (120°)5.8 mphMostly Cloudy
9:50 AM59.0 °F53.6 °F82 %29.95 in6.2 miEast (100°)4.6 mphMostly Cloudy
10:20 AM59.0 °F53.6 °F82 %29.92 in6.2 miSE (130°)13.8 mphMostly Cloudy
10:50 AM59.0 °F53.6 °F82 %29.95 in6.2 miSE (130°)11.5 mphMostly Cloudy
11:20 AM59.0 °F53.6 °F82 %29.92 in5.6 miESE (120°)9.2 mphMostly Cloudy
11:50 AM59.0 °F53.6 °F82 %29.92 in6.2 miESE (110°)6.9 mphMostly Cloudy
12:20 PM59.0 °F53.6 °F82 %29.92 in6.2 miEast (100°)6.9 mphMostly Cloudy
12:50 PM60.8 °F53.6 °F77 %29.89 in6.2 miESE (120°)4.6 mphRainLight Rain
1:20 PM60.8 °F53.6 °F77 %29.89 in6.2 miSE (130°)6.9 mphMostly Cloudy
1:50 PM62.6 °F53.6 °F72 %29.89 in6.2 miSE (130°)8.1 mphMostly Cloudy
2:20 PM62.6 °F53.6 °F72 %29.89 in6.2 miSE (130°)5.8 mphMostly Cloudy
2:50 PM62.6 °F55.4 °F77 %29.86 in6.2 miESE (120°)5.8 mphScattered Clouds
3:20 PM62.6 °F51.8 °F68 %29.86 in6.2 miSE (140°)10.4 mphScattered Clouds
3:50 PM64.4 °F51.8 °F64 %29.83 in6.2 miSE (130°)9.2 mphScattered Clouds
4:20 PM62.6 °F50.0 °F63 %29.83 in6.2 miSE (140°)11.5 mphScattered Clouds
4:50 PM62.6 °F50.0 °F63 %29.80 in6.2 miSE (140°)10.4 mphPartly Cloudy
5:20 PM62.6 °F51.8 °F68 %29.80 in6.2 miESE (120°)9.2 mphPartly Cloudy
5:50 PM60.8 °F50.0 °F68 %29.77 in6.2 miESE (110°)9.2 mphPartly Cloudy
6:20 PM60.8 °F50.0 °F68 %29.77 in6.2 miESE (110°)9.2 mphPartly Cloudy
6:50 PM60.8 °F50.0 °F68 %29.77 in6.2 miESE (120°)10.4 mphPartly Cloudy
Hourly data recorded from EGBJ, located miles away from Ross, England







STORIES FROM OUR PARTNERS